Flag for Germany Weather past 2 weeks in Singen (Hohentwiel), Baden-Württemberg, Germany

Now
51 °F

Clear.


Feels Like: 51 °F
Forecast: 42 / 64 °F
Wind: 2 mph from North

Location: Konstanz

Current Time: May 23, 2015 at 1:10:28 AM

Latest Report: May 23, 2015 at 12:00 AM


Visibility: 16 mi

Pressure: 30.17 "Hg

Humidity: 77%

Dew point: 44 °F

Location of Singen (Hohentwiel)Location

Historic Weather in Singen (Hohentwiel) — Graph

°F

Singen (Hohentwiel) temperature yesterday

Maximum temperature yesterday: 60 °F (at 5:00 PM)
Minimum temperature yesterday: 45 °F (at 6:00 AM)
Average temperature yesterday: 53 °F

Past Weeks' High & Low Weather Summary

 TemperatureHumidityPressure
High84 °F (May 12, 6:00 PM)97% (May 15, 2:00 PM)30.37 "Hg (May 15, 2:00 PM)
Low44 °F (May 21, 4:00 AM)26% (May 12, 7:00 PM)29.70 "Hg (May 18, 7:00 PM)
Average59 °F72%30.08 "Hg
* Reported May 7 11:00 PM — May 22 11:00 PM, Singen (Hohentwiel), Weather by CustomWeather, © 2015

Note: Actual official high and low records may vary slightly from our data, if they occured in-between our weather recording intervals... More about our weather records

Advertising

Singen (Hohentwiel) weather history for previous 24 hours

 ConditionsComfort  
Time TempWeatherWind HumidityBarometerVisibility
11:00 PM
Fri, May 22
52 °FClear.1 mph73%30.18 "Hg17 mi
10:00 PM54 °FPassing clouds.1 mph70%30.17 "Hg15 mi
9:00 PM55 °FSunny.3 mph63%30.17 "Hg19 mi
8:00 PM57 °FScattered clouds.3 mph64%30.16 "Hg19 mi
7:00 PM58 °FOvercast.3 mph55%30.15 "Hg16 mi
6:00 PM60 °FOvercast.1 mph53%30.16 "Hg18 mi
5:00 PM60 °FPartly sunny.2 mph55%30.17 "Hg19 mi
4:00 PM59 °FOvercast.2 mph59%30.19 "Hg16 mi
3:00 PM57 °FOvercast.2 mph61%30.21 "Hg16 mi
2:00 PM59 °FOvercast.2 mph59%30.22 "Hg16 mi
1:00 PM58 °FOvercast.2 mph61%30.24 "Hg22 mi
12:00 PM56 °FPartly sunny.2 mph62%30.26 "Hg22 mi
11:00 AM56 °FScattered clouds.2 mph59%30.27 "Hg22 mi
10:00 AM53 °FPartly sunny.2 mph62%30.28 "Hg22 mi
9:00 AM51 °FPartly sunny.2 mph62%30.29 "Hg22 mi
8:00 AM47 °FOvercast.2 mph76%30.31 "Hg19 mi
7:00 AM46 °FOvercast.1 mph80%30.31 "Hg10 mi
6:00 AM45 °FOvercast.2 mph85%30.31 "Hg9 mi
5:00 AM46 °FOvercast.2 mph92%30.31 "Hg6 mi
4:00 AM47 °FFog.1 mph93%30.32 "Hg4 mi
3:00 AM48 °FOvercast.1 mph94%30.32 "Hg5 mi
2:00 AM48 °FOvercast.2 mph92%30.32 "Hg7 mi
1:00 AM48 °FOvercast.1 mph91%30.33 "Hg10 mi
Weather by CustomWeather, © 2015

See weather overviewHow to use our weather pages